SVOLVAER/HELLE current weather conditions

sailwx.info

Wind from 330 at 7 knots

Air temperature 1.0° C
Visibility: greater than 5.4 NM
Dewpoint -6.0° C
Present weather: Showers in the vicinity.

Last reported at 2020-Jan-22 10:50 UTC.
Time now 2020-Jan-22 13:27 UTC

Location: N 68°15' E 014°40'.
View on Google Maps.

See reports from other nearby stations

  
Tides and Currents Weather Stations Pressure Air Temp Water Temp Dewpoint Dewpoint Depression Visibility Wind Speed Wind Dir Waves Ship Positions
date/time (UTC)wind fromknots sea level pressurealtimeterstation pressurevisibilityair tempwater tempwave heightnotes
2020-Jan-22 10:50 330 7 5.4 1.0 Showers in the vicinity.
2020-Jan-22 10:20 290 5 5.4 1.0 Showers in the vicinity.
2020-Jan-22 09:50 330 14 gusting 27 5.4 2.0
2020-Jan-22 09:20 330 13 5.4 1.0
2020-Jan-22 08:50 330 15 gusting 27 5.4 2.0
2020-Jan-22 08:20 330 13 5.4 1.0
2020-Jan-22 07:50 340 9 5.4 1.0
2020-Jan-22 07:20 340 9 gusting 20 5.4 2.0 Showers in the vicinity.
2020-Jan-22 06:20 330 6 5.4 1.0 Light snow showers.
2020-Jan-22 05:50 310 9 5.4 2.0 Light snow showers.
2020-Jan-22 04:50 340 15 5.4 3.0 Showers in the vicinity.
2020-Jan-22 04:20 340 17 5.4 3.0 Showers in the vicinity.
2020-Jan-22 03:50 330 13 5.4 3.0 Showers in the vicinity.
2020-Jan-22 03:20 5.4 2.0 Light snow showers.
2020-Jan-21 21:20 360 4 5.4-0.0 Showers in the vicinity.
2020-Jan-21 20:50 030 6 5.4-0.0 Light snow showers.
2020-Jan-21 20:20 5.4 1.0 Showers in the vicinity.
2020-Jan-21 19:50 220 2 5.4 1.0 Light snow showers.
2020-Jan-21 19:20 5.4-0.0 Showers in the vicinity.
2020-Jan-21 18:50 250 5 1.1-0.0 Snow showers.
2020-Jan-21 17:50 230 5 1.6-0.0 Light snow showers.
2020-Jan-21 17:20 260 4 5.4-0.0 Light snow showers.
2020-Jan-21 16:50 230 8 4.3-1.0 Light snow showers.
2020-Jan-21 16:20 250 7 5.4 1.0 Light snow showers.
2020-Jan-21 15:50 230 7 5.4-0.0 Light snow showers.
2020-Jan-21 15:20 240 8 1.6-1.0 Light snow showers. Small hail/snow pellets.
2020-Jan-21 14:50 280 13 5.4 1.0 Light small hail/snow pellets. Snow.
2020-Jan-21 10:50 260 8 4.9-0.0 Light snow. Small hail/snow pellets.
2020-Jan-21 10:20 250 12 gusting 21 1.1 1.0 Light snow showers. Small hail/snow pellets.
2020-Jan-21 09:50 250 17 5.4 1.0 Showers in the vicinity.
2020-Jan-21 09:20 280 13 5.4 2.0 Showers in the vicinity.
2020-Jan-21 08:50 230 17 5.4 2.0 Showers in the vicinity.
2020-Jan-21 08:20 230 13 gusting 25 2.7 2.0 Light snow showers.
2020-Jan-21 07:50 250 12 5.4 1.0 Light snow showers.
2020-Jan-21 07:20 250 15 gusting 26 5.4 1.0 Light snow showers. Small hail/snow pellets.
2020-Jan-21 06:50 280 15 gusting 27 5.4 2.0 Showers in the vicinity.
2020-Jan-21 06:20 270 13 gusting 28 5.4 2.0 Light snow showers. Small hail/snow pellets.
2020-Jan-21 05:50 270 14 gusting 27 5.4 2.0 Showers in the vicinity.
2020-Jan-21 05:20 280 15 gusting 28 5.4 2.0 Light snow showers.
2020-Jan-21 04:50 250 13 5.4 3.0 Light snow showers.
2020-Jan-21 04:20 250 14 5.4 2.0 Showers in the vicinity.
2020-Jan-21 03:50 300 19 gusting 34 5.4 3.0 Showers in the vicinity.
2020-Jan-21 03:20 260 19 gusting 34 5.4 3.0 Light snow showers. Small hail/snow pellets.
2020-Jan-20 21:20 260 5 5.4 4.0 Light rain.
2020-Jan-20 20:50 200 7 5.4 4.0 Light drizzle snow. Small hail/snow pellets.
2020-Jan-20 20:20 220 11 5.4 4.0 Light drizzle snow. Small hail/snow pellets.
2020-Jan-20 19:50 210 9 5.4 4.0 Light rain showers.
2020-Jan-20 19:20 5.4 3.0
2020-Jan-20 18:20 5.4 3.0 Light rain.
2020-Jan-20 17:50 5.4 3.0 Light rain.
2020-Jan-20 17:20 250 4 5.4 2.0 Light rain.
2020-Jan-20 16:50 280 6 5.4 4.0 Light rain.
2020-Jan-20 16:20 280 4 5.4 4.0 Light rain.
2020-Jan-20 15:50 230 5 5.4 4.0 Light rain.
2020-Jan-20 15:20 250 5 5.4 4.0 Light rain.
2020-Jan-20 14:50 230 8 5.4 4.0 Light rain.